FW2654 Weather Reports


time (UTC)temp
C
wind
direction
speed
KPH
gust
KPH
rain 1hr
cm
rain 24hr
cm
rain mn
cm
humidity
%
barometer
mb
20260508220345 19 218 0.0 0.0 0.00 0.00 0.00 44 1008.5
20260508215838 19 273 0.0 0.0 0.00 0.00 0.00 43 1008.5
20260508215332 19 176 0.0 0.0 0.00 0.00 0.00 44 1008.5
20260508214827 19 261 0.0 0.0 0.00 0.00 0.00 44 1008.5
20260508214545 20 211 0.0 0.0 0.00 0.00 0.00 44 1008.5
20260508213814 20 78 0.0 0.0 0.00 0.00 0.00 44 1008.5
20260508213308 20 142 0.0 0.0 0.00 0.00 0.00 43 1008.6
20260508212803 20 316 0.0 0.0 0.00 0.00 0.00 44 1008.6
20260508212257 20 304 0.0 0.0 0.00 0.00 0.00 43 1008.7
20260508211751 20 153 0.0 0.0 0.00 0.00 0.00 45 1008.6
20260508211245 20 302 0.0 0.0 0.00 0.00 0.00 43 1008.7
20260508210739 19 211 0.0 0.0 0.00 0.00 0.00 43 1008.8
20260508210233 20 314 0.0 0.0 0.00 0.00 0.00 44 1009.0
20260508205727 20 249 0.0 0.0 0.00 0.00 0.00 43 1009.1
20260508205221 20 254 0.0 0.0 0.00 0.00 0.00 43 1009.2
20260508204715 20 276 0.0 0.0 0.00 0.00 0.00 42 1009.4
20260508204209 20 108 0.0 0.0 0.00 0.00 0.00 43 1009.4
20260508203703 20 288 0.0 0.0 0.00 0.00 0.00 42 1009.3
20260508203414 20 201 0.0 0.0 0.00 0.00 0.00 41 1009.4
20260508202915 20 180 0.0 0.0 0.00 0.00 0.00 42 1009.4
20260508202632 20 225 0.0 0.0 0.00 0.00 0.00 43 1009.5
20260508201648 20 252 0.0 0.0 0.00 0.00 0.00 43 1009.5
20260508201148 20 253 0.0 0.0 0.00 0.00 0.00 43 1009.5
20260508200645 20 214 0.0 0.0 0.00 0.00 0.00 41 1009.5
20260508200622 20 171 0.0 0.0 0.00 0.00 0.00 42 1009.6
20260508195642 20 209 0.0 0.0 0.00 0.00 0.00 41 1009.6
20260508195144 20 210 0.0 0.0 0.00 0.00 0.00 41 1009.7
20260508194642 20 319 0.0 0.0 0.00 0.00 0.00 39 1009.7
20260508194143 20 273 0.0 0.0 0.00 0.00 0.00 39 1009.7
20260508193642 20 265 0.0 0.0 0.00 0.00 0.00 40 1009.6
20260508193405 21 231 0.0 0.0 0.00 0.00 0.00 38 1009.8
20260508192902 21 165 0.0 0.0 0.00 0.00 0.00 39 1009.9
20260508192143 21 340 0.0 0.0 0.00 0.00 0.00 39 1009.9
20260508191642 21 229 0.0 0.0 0.00 0.00 0.00 40 1010.0
20260508191408 20 104 0.0 0.0 0.00 0.00 0.00 40 1010.0
20260508190642 20 189 0.0 0.0 0.00 0.00 0.00 41 1010.1
20260508190405 20 355 0.0 0.0 0.00 0.00 0.00 39 1010.3
20260508185643 21 351 0.0 0.0 0.00 0.00 0.00 39 1010.4
20260508185410 21 319 0.0 0.0 0.00 0.00 0.00 41 1010.5
20260508184638 20 123 0.0 0.0 0.00 0.00 0.00 42 1010.5
20260508184139 20 163 0.0 0.0 0.00 0.00 0.00 42 1010.6
20260508183639 20 304 0.0 0.0 0.00 0.00 0.00 41 1010.7
20260508183139 20 327 0.0 0.0 0.00 0.00 0.00 44 1010.7
20260508182636 20 315 0.0 0.0 0.00 0.00 0.00 42 1010.7
20260508182136 20 151 0.0 0.0 0.00 0.00 0.00 41 1010.9
20260508181636 20 153 0.0 0.0 0.00 0.00 0.00 41 1010.9
20260508181136 20 120 0.0 0.0 0.00 0.00 0.00 42 1011.0
20260508180637 20 344 0.0 0.0 0.00 0.00 0.00 39 1011.1
20260508180136 20 161 0.0 0.0 0.00 0.00 0.00 42 1011.1
20260508175634 20 234 0.0 0.0 0.00 0.00 0.00 42 1011.1
20260508175139 19 216 0.0 0.0 0.00 0.00 0.00 44 1011.3
20260508174635 19 237 0.0 0.0 0.00 0.00 0.00 42 1011.4
20260508174135 19 250 0.0 0.0 0.00 0.00 0.00 42 1011.6
20260508173634 19 263 0.0 0.0 0.00 0.00 0.00 42 1011.7
20260508173130 20 170 0.0 0.0 0.00 0.00 0.00 45 1011.8
20260508172852 20 227 0.0 0.0 0.00 0.00 0.00 44 1011.9
20260508172129 20 244 0.0 0.0 0.00 0.00 0.00 45 1011.9
20260508171627 20 232 0.0 0.0 0.00 0.00 0.00 43 1011.9
20260508171127 20 159 0.0 0.0 0.00 0.00 0.00 43 1012.1
20260508170624 20 272 0.0 0.0 0.00 0.00 0.00 44 1012.2
20260508170126 20 188 0.0 0.0 0.00 0.00 0.00 45 1012.2
20260508165845 20 286 0.0 0.0 0.00 0.00 0.00 43 1012.4
20260508165124 20 182 0.0 0.0 0.00 0.00 0.00 44 1012.4
20260508164848 20 336 0.0 0.0 0.00 0.00 0.00 45 1012.5
20260508164126 20 271 0.0 0.0 0.00 0.00 0.00 47 1012.6
20260508163620 20 234 0.0 0.0 0.00 0.00 0.00 47 1012.6
20260508163120 19 174 0.0 0.0 0.00 0.00 0.00 45 1012.7
20260508162620 19 277 0.0 0.0 0.00 0.00 0.00 46 1012.8
20260508162121 19 259 0.0 0.0 0.00 0.00 0.00 45 1012.8
20260508161846 19 266 0.0 0.0 0.00 0.00 0.00 46 1012.9
20260508161121 19 208 0.0 0.0 0.00 0.00 0.00 45 1013.0
20260508160620 19 246 0.0 0.0 0.00 0.00 0.00 46 1013.0
20260508160120 19 220 0.0 0.0 0.00 0.00 0.00 49 1013.1
20260508155620 19 132 0.0 0.0 0.00 0.00 0.00 49 1013.1
20260508155119 18 271 0.0 0.0 0.00 0.00 0.00 48 1013.1
20260508154621 18 204 0.0 0.0 0.00 0.00 0.00 48 1013.1
20260508154120 18 245 0.0 0.0 0.00 0.00 0.00 48 1013.2
20260508153619 18 165 0.0 0.0 0.00 0.00 0.00 48 1013.3
20260508153119 18 313 0.0 0.0 0.00 0.00 0.00 48 1013.4
20260508152621 18 205 0.0 0.0 0.00 0.00 0.00 47 1013.4
20260508152119 18 202 0.0 0.0 0.00 0.00 0.00 48 1013.5
20260508151620 18 277 0.0 0.0 0.00 0.00 0.00 46 1013.4
20260508151120 18 144 0.0 0.0 0.00 0.00 0.00 48 1013.5
20260508150613 18 355 0.0 0.0 0.00 0.00 0.00 51 1013.5
20260508150109 17 184 0.0 0.0 0.00 0.00 0.00 50 1013.5
20260508145602 17 278 0.0 0.0 0.00 0.00 0.00 49 1013.5
20260508145055 17 140 0.0 0.0 0.00 0.00 0.00 51 1013.6
20260508144549 17 282 0.0 0.0 0.00 0.00 0.00 51 1013.6
20260508144047 17 260 0.0 0.0 0.00 0.00 0.00 50 1013.6
20260508143548 16 293 0.0 0.0 0.00 0.00 0.00 52 1013.7
20260508143049 16 290 0.0 0.0 0.00 0.00 0.00 53 1013.7
20260508142549 16 243 0.0 0.0 0.00 0.00 0.00 50 1013.8
20260508142308 16 337 0.0 0.0 0.00 0.00 0.00 51 1013.8
20260508141545 16 225 0.0 0.0 0.00 0.00 0.00 56 1013.9
20260508141045 16 283 0.0 0.0 0.00 0.00 0.00 54 1013.9
20260508140546 15 256 0.0 0.0 0.00 0.00 0.00 54 1014.0
20260508140540 15 331 0.0 0.0 0.00 0.00 0.00 56 1013.9
20260508135543 15 266 0.0 0.0 0.00 0.00 0.00 56 1013.9
20260508135043 14 93 0.0 0.0 0.00 0.00 0.00 63 1013.9
20260508134807 13 209 0.0 0.0 0.00 0.00 0.00 63 1014.0
20260508134042 13 82 0.0 0.0 0.00 0.00 0.00 64 1014.1
20260508133544 13 278 0.0 0.0 0.00 0.00 0.00 66 1014.1
20260508133041 12 125 0.0 0.0 0.00 0.00 0.00 67 1014.2
20260508132811 12 102 0.0 0.0 0.00 0.00 0.00 66 1014.2
20260508132043 12 255 0.0 0.0 0.00 0.00 0.00 66 1014.2
20260508131801 12 232 0.0 0.0 0.00 0.00 0.00 67 1014.2
20260508131031 12 355 0.0 0.0 0.00 0.00 0.00 67 1014.2
20260508130525 12 278 0.0 0.0 0.00 0.00 0.00 67 1014.2
20260508130239 11 355 0.0 0.0 0.00 0.00 0.00 69 1014.0
20260508125513 11 162 0.0 0.0 0.00 0.00 0.00 71 1014.1
20260508125007 11 175 0.0 0.0 0.00 0.00 0.00 70 1014.1
20260508124719 10 167 0.0 0.0 0.00 0.00 0.00 72 1014.1
20260508123955 10 274 0.0 0.0 0.00 0.00 0.00 72 1014.0
20260508123449 10 317 0.0 0.0 0.00 0.00 0.00 74 1014.0
20260508122943 10 96 0.0 0.0 0.00 0.00 0.00 75 1013.9
20260508122437 9 302 0.0 0.0 0.00 0.00 0.00 74 1014.0
20260508121932 9 89 0.0 0.0 0.00 0.00 0.00 75 1014.0
20260508121913 9 227 0.0 0.0 0.00 0.00 0.00 75 1014.0
20260508120919 8 0 0.0 0.0 0.00 0.00 0.00 76 1014.0
20260508120413 8 173 0.0 0.0 0.00 0.00 0.00 78 1014.0
20260508115906 8 261 0.0 0.0 0.00 0.00 0.00 79 1013.9
20260508115400 8 136 0.0 0.0 0.00 0.00 0.00 79 1013.9
20260508114855 8 160 0.0 0.0 0.00 0.00 0.00 79 1013.8
20260508114349 8 210 0.0 0.0 0.00 0.00 0.00 79 1013.8
20260508113843 7 107 0.0 0.0 0.00 0.00 0.00 79 1013.7
20260508113826 7 257 0.0 0.0 0.00 0.00 0.00 80 1013.7
20260508112831 7 0 0.0 0.0 0.00 0.00 0.00 81 1013.7
20260508112324 7 0 0.0 0.0 0.00 0.00 0.00 81 1013.6
20260508111819 7 0 0.0 0.0 0.00 0.00 0.00 82 1013.5
20260508111313 7 155 0.0 0.0 0.00 0.00 0.00 83 1013.5
20260508110807 7 199 0.0 0.0 0.00 0.00 0.00 84 1013.4
20260508110301 6 170 0.0 0.0 0.00 0.00 0.00 86 1013.5
20260508105756 6 170 0.0 0.0 0.00 0.00 0.00 87 1013.4
20260508105249 6 303 0.0 0.0 0.00 0.00 0.00 87 1013.5
20260508104743 6 303 0.0 0.0 0.00 0.00 0.00 88 1013.5
20260508104726 6 303 0.0 0.0 0.00 0.00 0.00 89 1013.5
20260508103730 6 303 0.0 0.0 0.00 0.00 0.00 89 1013.5
20260508103225 6 303 0.0 0.0 0.00 0.00 0.00 89 1013.5
20260508102719 6 303 0.0 0.0 0.00 0.00 0.00 89 1013.5
20260508102213 6 303 0.0 0.0 0.00 0.00 0.00 90 1013.5
20260508101707 6 303 0.0 0.0 0.00 0.00 0.00 90 1013.5
20260508101201 6 303 0.0 0.0 0.00 0.00 0.00 90 1013.5
20260508100655 5 303 0.0 0.0 0.00 0.00 0.00 90 1013.4
20260508100149 5 303 0.0 0.0 0.00 0.00 0.00 91 1013.4
20260508095643 5 303 0.0 0.0 0.00 0.00 0.00 91 1013.5
20260508095615 5 303 0.0 0.0 0.00 0.00 0.00 91 1013.5
20260508094631 5 303 0.0 0.0 0.00 0.00 0.00 91 1013.5
20260508094125 5 303 0.0 0.0 0.00 0.00 0.00 91 1013.5
20260508093842 5 303 0.0 0.0 0.00 0.00 0.00 91 1013.5
20260508093554 5 303 0.0 0.0 0.00 0.00 0.00 91 1013.5
20260508092608 5 303 0.0 0.0 0.00 0.00 0.00 91 1013.5
20260508092104 5 303 0.0 0.0 0.00 0.00 0.00 91 1013.5
20260508091554 5 303 0.0 0.0 0.00 0.00 0.00 91 1013.5
20260508091049 5 303 0.0 0.0 0.00 0.00 0.00 91 1013.6
20260508090543 4 303 0.0 0.0 0.00 0.00 0.00 91 1013.5
20260508090037 4 303 0.0 0.0 0.00 0.00 0.00 91 1013.5
20260508085537 4 304 0.0 0.0 0.00 0.00 0.00 90 1013.5
20260508085300 4 304 0.0 0.0 0.00 0.00 0.00 90 1013.5
20260508084757 4 304 0.0 0.0 0.00 0.00 0.00 89 1013.5
20260508084036 4 304 0.0 0.0 0.00 0.00 0.00 89 1013.6
20260508083537 4 303 0.0 0.0 0.00 0.00 0.00 89 1013.5
20260508083515 4 304 0.0 0.0 0.00 0.00 0.00 88 1013.4
20260508082533 4 304 0.0 0.0 0.00 0.00 0.00 88 1013.4
20260508082034 4 304 0.0 0.0 0.00 0.00 0.00 87 1013.3
20260508081534 4 304 0.0 0.0 0.00 0.00 0.00 87 1013.3
20260508081032 4 304 0.0 0.0 0.00 0.00 0.00 87 1013.3
20260508080532 4 304 0.0 0.0 0.00 0.00 0.00 87 1013.3
20260508080028 4 304 0.0 0.0 0.00 0.00 0.00 87 1013.4
20260508075529 4 303 0.0 0.0 0.00 0.00 0.00 87 1013.4
20260508075030 4 303 0.0 0.0 0.00 0.00 0.00 87 1013.3
20260508074755 4 303 0.0 0.0 0.00 0.00 0.00 86 1013.3
20260508074028 4 303 0.0 0.0 0.00 0.00 0.00 86 1013.3
20260508073533 5 303 0.0 0.0 0.00 0.00 0.00 86 1013.3
20260508073030 5 303 0.0 0.0 0.00 0.00 0.00 86 1013.3
20260508072527 5 303 0.0 0.0 0.00 0.00 0.00 86 1013.4
20260508072026 5 303 0.0 0.0 0.00 0.00 0.00 86 1013.3
20260508071528 5 303 0.0 0.0 0.00 0.00 0.00 85 1013.3
20260508071027 5 303 0.0 0.0 0.00 0.00 0.00 85 1013.4
20260508070529 5 301 0.0 0.0 0.00 0.00 0.00 85 1013.4
20260508070026 5 0 0.0 0.0 0.00 0.00 0.00 84 1013.4
20260508065747 5 300 0.0 0.0 0.00 0.00 0.00 84 1013.5
20260508065251 5 0 0.0 0.0 0.00 0.00 0.00 83 1013.7
20260508064528 5 300 0.0 0.0 0.00 0.00 0.00 83 1013.7
20260508064026 5 300 0.0 0.0 0.00 0.00 0.00 83 1013.8
20260508063528 5 301 0.0 0.0 0.00 0.00 0.00 83 1013.9
20260508063247 5 301 0.0 0.0 0.00 0.00 0.00 83 1013.9
20260508062745 5 301 0.0 0.0 0.00 0.00 0.00 83 1013.9
20260508062022 6 300 0.0 0.0 0.00 0.00 0.00 83 1014.0
20260508061519 6 301 0.0 0.0 0.00 0.00 0.00 83 1014.0
20260508061020 6 301 0.0 0.0 0.00 0.00 0.00 83 1014.0
20260508060518 6 302 0.0 0.0 0.00 0.00 0.00 83 1014.0
20260508060243 6 302 0.0 0.0 0.00 0.00 0.00 83 1013.9
20260508055515 6 302 0.0 0.0 0.00 0.00 0.00 83 1014.0
20260508055015 6 302 0.0 0.0 0.00 0.00 0.00 83 1014.1
20260508054516 6 302 0.0 0.0 0.00 0.00 0.00 83 1014.0
20260508054015 6 300 0.0 0.0 0.00 0.00 0.00 83 1014.1
20260508053516 6 301 0.0 0.0 0.00 0.00 0.00 83 1014.0
20260508053016 6 300 0.0 0.0 0.00 0.00 0.00 83 1014.0
20260508052516 6 301 0.0 0.0 0.00 0.00 0.00 82 1014.0
20260508052017 6 302 0.0 0.0 0.00 0.00 0.00 82 1013.9
20260508051737 6 302 0.0 0.0 0.00 0.00 0.00 81 1013.9
20260508051012 6 303 0.0 0.0 0.00 0.00 0.00 82 1013.9
20260508050513 6 303 0.0 0.0 0.00 0.00 0.00 81 1013.9
20260508050011 6 303 0.0 0.0 0.00 0.00 0.00 81 1013.9
20260508045512 6 303 0.0 0.0 0.00 0.00 0.00 81 1013.9
20260508045011 6 303 0.0 0.0 0.00 0.00 0.00 81 1013.9
20260508044512 6 303 0.0 0.0 0.00 0.00 0.00 81 1013.9
20260508044012 6 303 0.0 0.0 0.00 0.00 0.00 81 1013.8
20260508043513 6 303 0.0 0.0 0.00 0.00 0.00 81 1013.9
20260508043504 6 303 0.0 0.0 0.00 0.00 0.00 81 1013.9
20260508042512 6 303 0.0 0.0 0.00 0.00 0.00 82 1013.9
20260508042012 6 303 0.0 0.0 0.00 0.00 0.00 83 1013.8
20260508041511 6 302 0.0 0.0 0.00 0.00 0.00 83 1013.8
20260508041008 6 302 0.0 0.0 0.00 0.00 0.00 82 1013.7
20260508040729 6 0 0.0 0.0 0.00 0.00 0.00 82 1013.6
20260508040008 6 0 0.0 0.0 0.00 0.00 0.00 82 1013.7
20260508035509 6 0 0.0 0.0 0.00 0.00 0.00 82 1013.7
20260508035009 6 298 0.0 0.0 0.00 0.00 0.00 81 1013.8
20260508034503 6 298 0.0 0.0 0.00 0.00 0.00 81 1013.7
20260508033957 6 298 0.0 0.0 0.00 0.00 0.00 82 1013.8
20260508033451 6 298 0.0 0.0 0.00 0.00 0.00 81 1013.7
20260508033217 6 298 0.0 0.0 0.00 0.00 0.00 81 1013.9
20260508032440 6 295 0.0 0.0 0.00 0.00 0.00 81 1013.9
20260508031934 6 0 0.0 0.0 0.00 0.00 0.00 80 1013.8
20260508031657 6 302 0.0 0.0 0.00 0.00 0.00 79 1013.6
20260508030922 6 302 0.0 0.0 0.00 0.00 0.00 79 1013.6
20260508030417 6 302 0.0 0.0 0.00 0.00 0.00 79 1013.6
20260508025910 6 302 0.0 0.0 0.00 0.00 0.00 78 1013.8
20260508025622 6 302 0.0 0.0 0.00 0.00 0.00 78 1013.8
20260508024858 7 302 0.0 0.0 0.00 0.00 0.00 77 1013.9
20260508024357 7 302 0.0 0.0 0.00 0.00 0.00 77 1013.8
20260508023858 7 302 0.0 0.0 0.00 0.00 0.00 77 1013.8
20260508023356 7 302 0.0 0.0 0.00 0.00 0.00 76 1013.7
20260508022855 7 298 0.0 0.0 0.00 0.00 0.00 75 1013.6
20260508022354 7 301 0.0 0.0 0.00 0.00 0.00 75 1013.6
20260508021852 7 0 0.0 0.0 0.00 0.00 0.00 74 1013.7
20260508021351 7 0 0.0 0.0 0.00 0.00 0.00 74 1013.7
20260508020853 8 0 0.0 0.0 0.00 0.00 0.00 74 1013.6
20260508020349 8 0 0.0 0.0 0.00 0.00 0.00 73 1013.5
20260508015849 8 0 0.0 0.0 0.00 0.00 0.00 71 1013.7
20260508015347 8 0 0.0 0.0 0.00 0.00 0.00 71 1013.7
20260508015334 8 0 0.0 0.0 0.00 0.00 0.00 70 1013.6
20260508014348 9 0 0.0 0.0 0.00 0.00 0.00 70 1013.7
20260508013847 9 0 0.0 0.0 0.00 0.00 0.00 68 1013.7
20260508013345 9 0 0.0 0.0 0.00 0.00 0.00 67 1013.7
20260508012845 10 0 0.0 0.0 0.00 0.00 0.00 67 1013.7
20260508012345 10 0 0.0 0.0 0.00 0.00 0.00 66 1013.6
20260508011839 10 0 0.0 0.0 0.00 0.00 0.00 64 1013.5
20260508011332 10 0 0.0 0.0 0.00 0.00 0.00 63 1013.5
20260508010827 11 0 0.0 0.0 0.00 0.00 0.00 63 1013.5
20260508010321 11 0 0.0 0.0 0.00 0.00 0.00 59 1013.5
20260508005815 11 0 0.0 0.0 0.00 0.00 0.00 58 1013.4
20260508005531 11 0 0.0 0.0 0.00 0.00 0.00 54 1013.4
20260508004803 12 0 0.0 0.0 0.00 0.00 0.00 54 1013.4
20260508004256 12 303 0.0 0.0 0.00 0.00 0.00 52 1013.4
20260508003751 12 0 0.0 0.0 0.00 0.00 0.00 51 1013.4
20260508003245 12 303 0.0 0.0 0.00 0.00 0.00 51 1013.3
20260508002739 13 303 0.0 0.0 0.00 0.00 0.00 49 1013.4
20260508002501 13 303 0.0 0.0 0.00 0.00 0.00 48 1013.3
20260508001727 13 303 0.0 0.0 0.00 0.00 0.00 46 1013.2
20260508001221 13 302 0.0 0.0 0.00 0.00 0.00 44 1013.2
20260508000714 13 302 0.0 0.0 0.00 0.00 0.00 45 1013.2
20260508000212 13 234 0.0 0.0 0.00 0.00 0.00 43 1013.2
20260507235702 14 234 0.0 0.0 0.00 0.00 0.00 42 1013.2
20260507235157 14 246 0.0 0.0 0.00 0.00 0.00 43 1013.2
20260507234651 14 246 0.0 0.0 0.00 0.00 0.00 42 1013.2
20260507234145 14 306 0.0 0.0 0.00 0.00 0.00 41 1013.1
20260507233638 14 321 0.0 0.0 0.00 0.00 0.00 43 1013.1
20260507233133 14 227 0.0 0.0 0.00 0.00 0.00 42 1013.0
20260507232627 15 228 0.0 0.0 0.00 0.00 0.00 43 1013.0
20260507232125 15 228 0.0 0.0 0.00 0.00 0.00 42 1012.9
20260507231611 15 290 0.0 0.0 0.00 0.00 0.00 44 1013.0
20260507231326 15 261 0.0 0.0 0.00 0.00 0.00 42 1013.0
20260507230558 15 261 0.0 0.0 0.00 0.00 0.00 40 1012.9
20260507230053 15 261 0.0 0.0 0.00 0.00 0.00 39 1013.0
20260507225547 15 306 0.0 0.0 0.00 0.00 0.00 39 1013.1
20260507225041 15 117 0.0 0.0 0.00 0.00 0.00 41 1012.9
20260507224535 15 235 0.0 0.0 0.00 0.00 0.00 40 1013.0
20260507224038 16 313 0.0 0.0 0.00 0.00 0.00 39 1013.0
20260507223523 16 326 0.0 0.0 0.00 0.00 0.00 40 1013.0
20260507223236 16 215 0.0 0.0 0.00 0.00 0.00 42 1013.0
20260507222511 16 72 0.0 0.0 0.00 0.00 0.00 43 1013.0
20260507222005 16 344 0.0 0.0 0.00 0.00 0.00 42 1013.1
20260507221458 16 99 0.0 0.0 0.00 0.00 0.00 42 1013.1
20260507220952 16 320 0.0 0.0 0.00 0.00 0.00 43 1013.2